Location: Peterborough
(44.3091°N, 78.3197°W)
Time: 00:29:38
(UTC-04:00)

SR - Pass Details

Date: 27 March 2023
Orbit: 581 x 867 km, 66.7° (Epoch: 02 June)

Event Time Altitude Azimuth Distance (km) Brightness Sun altitude
Rises 10:57:35 0° 334° (NNW) 2,812 ? 38.0°
Reaches altitude 10° 10:59:55 10° 342° (NNW) 1,919 ? 38.3°
Maximum altitude 11:03:56 38° 52° (NE) 925 ? 38.8°
Drops below altitude 10° 11:08:07 10° 121° (ESE) 1,997 ? 39.4°
Sets 11:10:35 0° 129° (SE) 2,943 ? 39.7°
